[[{"header":{"parameterUnit":"m.s-1","parameterCategory":1,"la1":30.2991,"la2":30.254,"lo1":-89.0895,"lo2":-89.0444,"dy":0.0017,"dx":0.0017,"nx":28,"ny":28,"refTime":"2025-05-25T09:00:00:Z","depth":0,"parameterNumber":2,"parameterNumberName":"U-component_of_WINDS"},"data":[0,0,0,0,0,0,0,0,0,0,0,0,0,0,0,0,0,0,0,0,0,0,0,0,0,0,0,0,0,0,0,0,0,0,0,0,0,0,0,0,0,0,0,0,0,0,0,0,0,0,0,0,0,0,0,0,0,0,-0.3498,-0.3498,0,-0.3559,-0.3559,-0.356,-0.3609,-0.361,-0.361,-0.3611,-0.3674,-0.3675,-0.3676,0,0,0,0,0,0,0,0,0,0,0,0,0,-0.3424,-0.3426,-0.3497,-0.3498,-0.3499,-0.3559,-0.3559,-0.356,-0.3609,-0.361,-0.361,-0.3611,-0.3673,-0.3675,-0.3676,0,0,0,0,0,0,0,0,0,0,0,0,0,-0.3468,-0.3426,-0.3497,-0.3531,-0.3534,-0.3558,-0.3559,-0.3561,-0.3609,-0.361,-0.361,-0.3611,-0.3673,-0.3674,-0.3676,-0.3673,0,0,-0.3682,-0.3683,0,0,0,0,0,0,0,0,-0.3465,-0.3471,-0.3525,-0.3528,-0.3532,-0.3577,-0.3557,-0.3598,-0.3609,-0.3581,-0.3611,-0.3611,-0.3641,-0.3645,-0.3655,-0.3676,-0.3678,-0.3682,-0.3683,-0.3684,-0.3684,0,0,0,0,0,0,0,-0.3462,-0.3468,-0.3522,-0.3526,-0.353,-0.3543,-0.355,-0.3565,-0.3606,-0.3583,-0.3587,-0.3593,-0.3643,-0.3653,-0.3657,-0.3679,-0.3682,-0.3683,-0.3685,-0.3685,-0.3701,-0.3701,0,0,0,0,0,0,-0.3454,-0.3465,-0.352,-0.3524,-0.35,-0.3544,-0.3551,-0.3562,-0.3606,-0.3613,-0.3593,-0.3595,-0.365,-0.3655,-0.3659,-0.3659,-0.3684,-0.3686,-0.3687,-0.3702,-0.3701,-0.3701,0,0,0,0,0,0,-0.3452,-0.3458,-0.3517,-0.3496,-0.3504,-0.3544,-0.3556,-0.3563,-0.3573,-0.3613,-0.3621,-0.3595,-0.3651,-0.3657,-0.3669,-0.3662,-0.3686,-0.3688,-0.3703,-0.3702,-0.3701,-0.3658,0,0,0,0,0,0,-0.345,-0.3457,-0.3456,-0.3495,-0.3505,-0.3526,-0.3555,-0.3563,-0.3576,-0.358,-0.3618,-0.3625,-0.3652,-0.3666,-0.3671,-0.3665,-0.3689,-0.3704,-0.3702,-0.3701,-0.366,-0.3655,-0.3651,0,0,0,0,0,-0.3447,-0.3441,-0.3456,-0.3462,-0.3504,-0.3525,-0.3531,-0.3562,-0.3575,-0.3575,-0.36,-0.3623,-0.3662,-0.3667,-0.3673,-0.3667,-0.3704,-0.3703,-0.3701,-0.3662,-0.3656,-0.3652,0,0,0,0,0,0,-0.34,-0.3447,-0.3463,-0.347,-0.3493,-0.3533,-0.3533,-0.3555,-0.3575,-0.3578,-0.3616,-0.3624,-0.3632,-0.3651,-0.3656,-0.3667,-0.3686,-0.3686,-0.3654,-0.3649,-0.3645,-0.364,-0.3691,0,0,0,0,0,-0.3391,-0.3403,-0.3444,-0.3446,-0.3456,-0.3493,-0.3503,-0.3525,-0.3551,-0.3561,-0.3588,-0.3612,-0.363,-0.3641,-0.3659,-0.3663,-0.3672,-0.3662,-0.3658,-0.3654,-0.3653,-0.3658,-0.3654,-0.3696,-0.3696,-0.3696,0,0,-0.3371,-0.3398,-0.3404,-0.3437,-0.3457,-0.3471,-0.3501,-0.3513,-0.3523,-0.3563,-0.3576,-0.3597,-0.3627,-0.3635,-0.364,-0.3651,-0.3644,-0.3652,-0.3649,-0.365,-0.3656,-0.3652,-0.3649,-0.3695,-0.3695,-0.3695,0,0,-0.3342,-0.3363,-0.3368,-0.3388,-0.3419,-0.3443,-0.3444,-0.3481,-0.3497,-0.3511,-0.3541,-0.3554,-0.3584,-0.3604,-0.3618,-0.3598,-0.362,-0.3603,-0.3581,-0.3585,-0.3581,-0.3579,-0.3572,-0.357,-0.3602,-0.3602,-0.3602,0,-0.3313,-0.3334,-0.3367,-0.3378,-0.3392,-0.3429,-0.3434,-0.3452,-0.3487,-0.3497,-0.3508,-0.3547,-0.3569,-0.3584,-0.3579,-0.3589,-0.3592,-0.3599,-0.3579,-0.3577,-0.3575,-0.3569,-0.3567,-0.36,-0.36,-0.36,-0.36,0,-0.3298,-0.3312,-0.3312,-0.3345,-0.3359,-0.3367,-0.3402,-0.3413,-0.3434,-0.3457,-0.3472,-0.3501,-0.3526,-0.3531,-0.3551,-0.3549,-0.3555,-0.3572,-0.3592,-0.3568,-0.3563,-0.3561,-0.3596,-0.3597,-0.3598,-0.3598,0,0,-0.3241,-0.3293,-0.3292,-0.3309,-0.3346,-0.3358,-0.3368,-0.3393,-0.3401,-0.3425,-0.3435,-0.3459,-0.3476,-0.3492,-0.3515,-0.3519,-0.3502,-0.3537,-0.3538,-0.353,-0.3502,-0.3489,-0.3486,-0.3517,-0.3517,-0.3517,-0.35,0,-0.3218,-0.3238,-0.3268,-0.3278,-0.3292,-0.3328,-0.3337,-0.3361,-0.3383,-0.3399,-0.3424,-0.3441,-0.3461,-0.3472,-0.3477,-0.3503,-0.3497,-0.3505,-0.3528,-0.3528,-0.3519,-0.3483,-0.3469,-0.3452,-0.3498,-0.3498,-0.3498,0,-0.3194,-0.3216,-0.3227,-0.3264,-0.3271,-0.3279,-0.3305,-0.3319,-0.3347,-0.3363,-0.3382,-0.3407,-0.3421,-0.3439,-0.3458,-0.3463,-0.3474,-0.3488,-0.3489,-0.3492,-0.3511,-0.3486,-0.3447,-0.3444,-0.3495,-0.3495,-0.3495,0,-0.3152,-0.3184,-0.3195,-0.3208,-0.3251,-0.3256,-0.3274,-0.3304,-0.3317,-0.334,-0.3349,-0.3373,-0.3386,-0.3404,-0.3436,-0.3446,-0.3452,-0.3473,-0.3467,-0.3466,-0.3467,-0.3466,-0.3429,-0.3473,-0.3473,-0.3473,-0.3473,0,-0.3124,-0.313,-0.3177,-0.3184,-0.3192,-0.3227,-0.3234,-0.3256,-0.3282,-0.3294,-0.3327,-0.3338,-0.3379,-0.3395,-0.3419,-0.3432,-0.3438,-0.3452,-0.3458,-0.3449,-0.3447,-0.3457,-0.3459,-0.3472,-0.3472,-0.3473,-0.3473,0,-0.3078,-0.311,-0.3125,-0.3165,-0.3175,-0.3179,-0.3214,-0.3223,-0.3247,-0.3262,-0.3268,-0.3307,-0.3327,-0.3361,-0.3391,-0.3408,-0.3416,-0.3427,-0.3407,-0.3411,-0.3403,-0.3403,-0.3371,-0.3369,-0.3413,-0.3413,-0.3412,0,-0.3058,-0.3064,-0.3105,-0.3115,-0.3132,-0.3149,-0.3163,-0.3198,-0.3212,-0.3245,-0.325,-0.3273,-0.3293,-0.3325,-0.3356,-0.3379,-0.3391,-0.3378,-0.3395,-0.3386,-0.3392,-0.3392,-0.3393,-0.3375,-0.3374,-0.3373,-0.3373,0,-0.302,-0.3036,-0.3055,-0.3079,-0.3095,-0.3116,-0.3138,-0.3145,-0.3186,-0.32,-0.3221,-0.3237,-0.3268,-0.3291,-0.3319,-0.3339,-0.3363,-0.3367,-0.3367,-0.3358,-0.3346,-0.3353,-0.3397,-0.3368,-0.3368,-0.3369,-0.3369,-0.3369,-0.2988,-0.2994,-0.3024,-0.3044,-0.3065,-0.3086,-0.3096,-0.3122,-0.314,-0.3169,-0.3189,-0.3209,-0.3239,-0.3279,-0.3297,-0.3314,-0.3325,-0.3325,-0.3325,-0.3324,-0.3321,-0.3343,-0.332,-0.332,-0.332,-0.332,-0.332,0,-0.2952,-0.2973,-0.2991,-0.3022,-0.3038,-0.3059,-0.3085,-0.3097,-0.3115,-0.314,-0.316,-0.3185,-0.3207,-0.324,-0.3266,-0.3273,-0.3285,-0.3279,-0.3279,-0.3283,-0.331,-0.3308,-0.3269,-0.3269,-0.3269,-0.3269,-0.3269,-0.3269,-0.2935,-0.2948,-0.2967,-0.2991,-0.3013,-0.3032,-0.3046,-0.3065,-0.3086,-0.3113,-0.3131,-0.3153,-0.3182,-0.3209,-0.3231,-0.3241,-0.3249,-0.3239,-0.3252,-0.3276,-0.3281,-0.3285,-0.3284,-0.324,-0.324,-0.3224,-0.3224,-0.3224]},{"header":{"parameterUnit":"m.s-1","parameterCategory":1,"la1":30.2991,"la2":30.254,"lo1":-89.0895,"lo2":-89.0444,"dy":0.0017,"dx":0.0017,"nx":28,"ny":28,"refTime":"2025-05-25T09:00:00:Z","depth":0,"parameterNumber":3,"parameterNumberName":"V-component_of_WINDS"},"data":[0,0,0,0,0,0,0,0,0,0,0,0,0,0,0,0,0,0,0,0,0,0,0,0,0,0,0,0,0,0,0,0,0,0,0,0,0,0,0,0,0,0,0,0,0,0,0,0,0,0,0,0,0,0,0,0,0,0,5.5155,5.5155,0,5.5209,5.521,5.5211,5.516,5.5158,5.5156,5.5154,5.5208,5.5211,5.5214,0,0,0,0,0,0,0,0,0,0,0,0,0,5.5005,5.5008,5.5155,5.5155,5.5156,5.5209,5.521,5.5211,5.5161,5.5158,5.5156,5.5153,5.5207,5.5211,5.5215,0,0,0,0,0,0,0,0,0,0,0,0,0,5.5066,5.5009,5.5155,5.5137,5.5136,5.5209,5.521,5.5211,5.5161,5.5158,5.5155,5.5152,5.5205,5.521,5.5215,5.5307,0,0,5.523,5.5233,0,0,0,0,0,0,0,0,5.5063,5.5072,5.5139,5.5139,5.5138,5.5175,5.5177,5.5243,5.5162,5.5152,5.5154,5.5151,5.5199,5.5205,5.5221,5.5309,5.5312,5.5231,5.5234,5.5236,5.5237,0,0,0,0,0,0,0,5.5059,5.5069,5.5176,5.514,5.5139,5.5127,5.5132,5.5189,5.5192,5.5152,5.5149,5.5156,5.5198,5.5217,5.5222,5.5312,5.5231,5.5235,5.5238,5.524,5.5479,5.5482,0,0,0,0,0,0,5.5056,5.5066,5.5174,5.5178,5.5092,5.5132,5.5138,5.5166,5.5191,5.5192,5.5159,5.5154,5.521,5.5216,5.5224,5.5333,5.5236,5.5241,5.5244,5.5476,5.548,5.5484,0,0,0,0,0,0,5.5053,5.5067,5.5172,5.5121,5.5133,5.5138,5.517,5.5169,5.5187,5.5196,5.5196,5.5177,5.5208,5.5217,5.5287,5.5334,5.5243,5.5247,5.5472,5.5477,5.5482,5.5552,0,0,0,0,0,0,5.5049,5.5066,5.5101,5.5122,5.5136,5.5235,5.5173,5.5172,5.5196,5.519,5.5213,5.5214,5.5206,5.528,5.5292,5.5339,5.5251,5.5468,5.5474,5.548,5.5546,5.5559,5.5571,0,0,0,0,0,5.5044,5.5118,5.5103,5.5116,5.518,5.5238,5.5246,5.5236,5.52,5.5235,5.5241,5.5213,5.5327,5.5287,5.5301,5.535,5.5465,5.5472,5.548,5.554,5.5556,5.557,0,0,0,0,0,0,5.5101,5.512,5.5104,5.5187,5.5211,5.5229,5.5273,5.5253,5.5287,5.528,5.5265,5.5271,5.5345,5.5355,5.531,5.5441,5.539,5.5401,5.5432,5.5447,5.5459,5.5455,5.5255,0,0,0,0,0,5.5123,5.5169,5.5183,5.5255,5.5268,5.5269,5.5293,5.5284,5.5308,5.5318,5.5328,5.5352,5.5394,5.5421,5.5459,5.5547,5.5552,5.5588,5.56,5.5611,5.562,5.5667,5.5684,5.5508,5.5508,5.5508,0,0,5.5169,5.5186,5.5215,5.5267,5.5284,5.5332,5.5278,5.5329,5.5364,5.5325,5.5392,5.5401,5.5427,5.5507,5.5542,5.5517,5.5669,5.562,5.5628,5.5632,5.5677,5.5693,5.5708,5.5513,5.5513,5.5512,0,0,5.5278,5.5295,5.5357,5.5376,5.5404,5.5404,5.5419,5.5441,5.5446,5.5513,5.5485,5.5526,5.5597,5.5617,5.5636,5.5754,5.573,5.5767,5.5832,5.5878,5.5892,5.5904,5.5946,5.5962,5.5776,5.5777,5.5777,0,5.5331,5.5402,5.5391,5.5445,5.5469,5.5437,5.55,5.5519,5.5557,5.5574,5.5546,5.5636,5.5651,5.5735,5.5764,5.5781,5.5797,5.5764,5.5891,5.5903,5.5914,5.5954,5.597,5.5781,5.578,5.578,5.5779,0,5.5466,5.5516,5.5562,5.5602,5.5631,5.5689,5.5687,5.5717,5.5705,5.5709,5.5778,5.5795,5.5837,5.5857,5.5845,5.5939,5.5923,5.5893,5.5842,5.5936,5.5973,5.5988,5.5787,5.5785,5.5784,5.5783,0,0,5.561,5.5645,5.5662,5.568,5.5709,5.5747,5.5804,5.5846,5.5872,5.59,5.5948,5.601,5.5983,5.6005,5.5996,5.6037,5.6129,5.6002,5.6002,5.6025,5.6235,5.6257,5.6274,5.6114,5.6117,5.6119,5.6233,0,5.572,5.5819,5.5812,5.5906,5.5951,5.5923,5.5972,5.5996,5.6001,5.604,5.6045,5.6089,5.605,5.6064,5.6103,5.611,5.6171,5.6102,5.6157,5.616,5.6151,5.6294,5.6317,5.6423,5.6247,5.6249,5.6251,0,5.586,5.5894,5.5993,5.6017,5.6035,5.608,5.6119,5.6157,5.6183,5.6183,5.6209,5.6193,5.6251,5.6199,5.6278,5.6231,5.6254,5.6261,5.6264,5.6269,5.6211,5.6302,5.6456,5.6472,5.6274,5.6272,5.6271,0,5.5955,5.6026,5.6095,5.6111,5.614,5.6172,5.6186,5.6209,5.6235,5.6268,5.6285,5.6325,5.6346,5.6377,5.6372,5.6335,5.6453,5.6401,5.6455,5.6455,5.648,5.6478,5.664,5.6496,5.6495,5.6495,5.6495,0,5.6077,5.6139,5.6138,5.618,5.6248,5.6239,5.6307,5.6316,5.6338,5.6381,5.6359,5.64,5.6391,5.6432,5.6429,5.6495,5.6505,5.6507,5.6505,5.6509,5.6508,5.6523,5.6515,5.6499,5.6498,5.6498,5.6497,0,5.6195,5.6196,5.6269,5.6291,5.6298,5.6348,5.6366,5.6406,5.641,5.6465,5.6478,5.6483,5.6531,5.6529,5.6583,5.658,5.6662,5.6652,5.6653,5.6651,5.6705,5.67,5.6881,5.6905,5.6746,5.6747,5.6748,0,5.6272,5.6319,5.6347,5.6375,5.6391,5.6436,5.6462,5.6456,5.6485,5.6519,5.6554,5.66,5.6636,5.6713,5.6721,5.6762,5.6753,5.6814,5.6759,5.6761,5.6753,5.6751,5.6755,5.6824,5.6826,5.6827,5.6828,0,5.641,5.6409,5.6449,5.649,5.6523,5.6554,5.6583,5.6607,5.6604,5.6637,5.6686,5.6714,5.6769,5.6815,5.6854,5.6868,5.6848,5.6846,5.6861,5.6864,5.6863,5.6865,5.6682,5.6841,5.684,5.6839,5.6839,5.6838,5.651,5.655,5.6576,5.6622,5.6643,5.6671,5.671,5.6719,5.676,5.6805,5.6798,5.6853,5.6879,5.693,5.6947,5.699,5.6968,5.6989,5.6995,5.7,5.7006,5.6857,5.6997,5.6996,5.6996,5.6996,5.6996,0,5.6646,5.6662,5.6704,5.6746,5.6782,5.6761,5.6792,5.6824,5.6872,5.6898,5.6934,5.6991,5.7035,5.7048,5.7091,5.7122,5.7114,5.7134,5.7131,5.7135,5.7023,5.7006,5.714,5.714,5.714,5.7139,5.7139,5.7139,5.6721,5.6789,5.6791,5.687,5.6885,5.6938,5.6958,5.6984,5.7005,5.7069,5.7106,5.7115,5.7136,5.718,5.722,5.7223,5.7239,5.7263,5.7262,5.7157,5.7142,5.7128,5.7112,5.7266,5.7267,5.737,5.7371,5.7371]}]]